Regional Weather Roundup
Issued by NWS Columbia, SC

Home | Current Version | Previous Version | Text Only | Print | Product List | Glossary On
Versions: 1 2 3 4 5 6 7 8 9 10 11 12 13 14 15 16 17 18 19 20 21 22 23 24 25 26 27 28 29 30 31 32 33 34 35 36 37 38 39 40 41 42 43 44 45 46 47 48 49 50
000
ASUS42 KCAE 021610
RWRCAE
REGIONAL WEATHER ROUNDUP
NATIONAL WEATHER SERVICE COLUMBIA SC
1100 AM EST MON MAR 02 2015

NOTE: "FAIR" INDICATES FEW OR NO CLOUDS BELOW 12,000 FEET WITH NO
SIGNIFICANT WEATHER AND/OR OBSTRUCTIONS TO VISIBILITY.

NOT ALL STATIONS ARE QUALITY CONTROLLED BY THE NATIONAL
WEATHER SERVICE. USE DATA WITH CAUTION...ESPECIALLY
DEWPOINT OBSERVATIONS.

SCZ001>056-GAZ040-063>065-077-021700-
...UPSTATE SOUTH CAROLINA...

CITY           SKY/WX    TMP DP  RH WIND       PRES   REMARKS
ANDERSON       PTSUNNY   58  51  78 VRB5      30.26S
LIBERTY        PTSUNNY   53  50  90 MISG      30.25F
SPARTANBURG    PTSUNNY   57  52  82 SW5       30.25F
CLEMSON        PTSUNNY   59  49  69 E5        30.26S
GREENVILLE     PTSUNNY   53  48  83 VRB3      30.26F
GREENWOOD      CLOUDY    53  50  89 W7        30.29R
GREER          PTSUNNY   56  49  77 SW5       30.25S
ROCK HILL      CLOUDY    48  47  96 CALM      30.25F FOG
CHESTER        CLOUDY    52  50  93 CALM      30.27S FOG
LAURENS        CLOUDY    50  50 100 NW6       30.28R FOG


...CENTRAL SOUTH CAROLINA...

CITY           SKY/WX    TMP DP  RH WIND       PRES   REMARKS
COLUMBIA APT   PTSUNNY   63  54  72 W7        30.25F
COLUMBIA OWENS PTSUNNY   60  52  74 W5        30.27F
DARLINGTON     CLOUDY    50  48  93 W5        30.29R
FLORENCE       CLOUDY    52  49  89 W9        30.27R
MCENTIRE ANGB  PTSUNNY   61  54  77 SW6       30.26F
ORANGEBURG     CLOUDY    52  50  93 SW6       30.28F FOG
SUMTER SHAW    CLOUDY    55  52  91 SW10      30.25S
NEWBERRY       CLOUDY    50  50 100 CALM      30.29S
AIKEN          PTSUNNY   55  55 100 SW10      30.31F
BARNWELL       CLOUDY    57  55  94 SW7       30.30F
MANNING        RAIN     N/A N/A N/A SW7       30.28F
CAMDEN         CLOUDY    50  50 100 CALM      30.28R FOG
LANCASTER      LGT RAIN  48  48 100 W5        30.28R
WINNSBORO      CLOUDY    50  50 100 W6        30.26S FOG


...EASTERN AND COASTAL SOUTH CAROLINA...

CITY           SKY/WX    TMP DP  RH WIND       PRES   REMARKS
MYRTLE BEACH   CLOUDY    55  52  88 W6        30.28F
N MYRTLE BCH   CLOUDY    57  52  83 W7        30.25F
CONWAY         CLOUDY    52 N/A N/A W6        30.27S HAZE
MARION         CLOUDY    50  50 100 CALM      30.27S FOG
HARTSVILLE     CLOUDY    50  48  93 SW3       30.28R
FLORENCE       CLOUDY    52  49  89 W9        30.27R
DARLINGTON     CLOUDY    50  48  93 W5        30.29R
CHARLESTON APT CLOUDY    53  52  96 VRB5      30.30F FOG
MOUNT PLEASANT CLOUDY    55  54  94 W8        30.30S
WALTERBORO     CLOUDY    54  54 100 W6        30.32S
BEAUFORT       CLOUDY    52  51  97 W5        30.32S FOG


...EASTERN GEORGIA...

CITY           SKY/WX    TMP DP  RH WIND       PRES   REMARKS
AUGUSTA BUSH F PTSUNNY   60  53  77 SW6       30.30F
AUGUSTA DANIEL MOSUNNY   61  53  75 SW6       30.30F
THOMSON        MOSUNNY   64  58  81 SW7       30.33S
WASHINGTON     FAIR      63  63 100 W8        30.29R
CLAXTON        CLOUDY    54  54 100 CALM      30.33F
SYLVANIA       CLOUDY    52  52 100 NW5       30.33F FOG
STATESBORO     CLOUDY    55  55 100 NW7       30.33R
SAVANNAH       CLOUDY    57  53  86 NW6       30.33F


...SOUTHERN NORTH CAROLINA...

CITY           SKY/WX    TMP DP  RH WIND       PRES   REMARKS
CHARLOTTE      CLOUDY    49  47  93 CALM      30.25F FOG
MONROE         CLOUDY    49  47  93 W6        30.25S
WADESBORO      CLOUDY    49  48  97 CALM      30.26S
ROCKINGHAM       N/A     47  47  99 W6        30.27R FOG
RUTHERFORDTON  MOSUNNY   58  47  68 CALM      30.25R
ASHEVILLE      CLOUDY    46  37  71 N16G25    30.31R

$$



USA.gov is the U.S. government's official web portal to all federal, state and local government web resources and services.